This is the latest recevied weather packets stored in our database for station/object SV1JCZ-13. If no packets are shown the sender has not sent any weather packets the latest 10 day(s).
| Time | Temp. | Humidity | Pressure | Rain* | Wind** | Luminosity | Snow |
|---|---|---|---|---|---|---|---|
| 1777564995 | 18.89° C | 66% | 0 hPa | 0 mm | - | - | - |
| 1777564635 | 18.89° C | 65% | 0 hPa | 0 mm | - | - | - |
| 1777564275 | 18.89° C | 66% | 0 hPa | 0 mm | - | - | - |
| 1777563915 | 19.44° C | 65% | 0 hPa | 0 mm | - | - | - |
| 1777563555 | 19.44° C | 64% | 0 hPa | 0 mm | - | - | - |
| 1777563436 | 19.44° C | 64% | 0 hPa | 0 mm | - | - | - |
| 1777563195 | 19.44° C | 63% | 0 hPa | 0 mm | - | - | - |
| 1777562835 | 19.44° C | 62% | 0 hPa | 0 mm | - | - | - |
| 1777562475 | 20° C | 62% | 0 hPa | 0 mm | - | - | - |
| 1777562236 | 20° C | 61% | 0 hPa | 0 mm | - | - | - |
| 1777562115 | 20° C | 61% | 0 hPa | 0 mm | - | - | - |
| 1777561755 | 20° C | 61% | 0 hPa | 0 mm | - | - | - |
| 1777561395 | 20.56° C | 60% | 0 hPa | 0 mm | - | - | - |
| 1777561035 | 21.11° C | 58% | 0 hPa | 0 mm | - | - | - |
| 1777560675 | 21.11° C | 57% | 0 hPa | 0 mm | - | - | - |
| 1777560315 | 21.67° C | 55% | 0 hPa | 0 mm | - | - | - |
| 1777559955 | 22.22° C | 56% | 0 hPa | 0 mm | - | - | - |
| 1777559595 | 21.67° C | 56% | 0 hPa | 0 mm | - | - | - |
| 1777559235 | 21.67° C | 59% | 0 hPa | 0 mm | - | - | - |
| 1777558875 | 22.22° C | 58% | 0 hPa | 0 mm | - | - | - |
| 1777558636 | 22.22° C | 58% | 0 hPa | 0 mm | - | - | - |
| 1777558515 | 22.22° C | 58% | 0 hPa | 0 mm | - | - | - |
| 1777558155 | 21.67° C | 59% | 0 hPa | 0 mm | - | - | - |
| 1777557795 | 21.67° C | 61% | 0 hPa | 0 mm | - | - | - |
| 1777557435 | 21.11° C | 61% | 0 hPa | 0 mm | - | - | - |
* Rain latest hour (hover to see other rain measurements)
** Current wind speed in m/s (hover to see current wind gust speed)